User: anonymous   Login
Location: L�Adrech
(44.2500°N, 6.4167°E)
Time: 14:08:50
(UTC+00:00)
Language:

SL-16 R/B - Orbit

View from above orbital plane
View from above orbital plane
View from above satellite
View from above satellite

Ground track
Ground track

The orbit data is extracted from the following two-line orbital elements,

1 31793U 07029B   21125.91211983 -.00000171  00000-0 -64288-4 0  9999
2 31793  70.9758 288.9857 0002255 263.5007 208.9772 14.14449312715253
Epoch (UTC): 05 May 2021 21:53:27
Eccentricity: 0.0002255
inclination: 70.9758°
perigee height: 842 km
apogee height: 846 km
right ascension of ascending node: 288.9857°
argument of perigee: 263.5007°
revolutions per day: 14.14449312
mean anomaly at epoch: 208.9772°
orbit number at epoch: 71525

The dashed part of the orbit path shows where the satellite is in the earth's shadow,  

DLR